This demonstration page uses our WeatherBlox Daily Observations layout. Learn more.

Left ArrowRight Arrow

Hourly Observations for November 6, 2019

Temp ( °F °C ) Dew Point ( °F °C ) Humidity (%) Winds ( mph kmh ) Pressure ( in mb ) Visibility ( mi km ) Precip ( " mm )
12:53 am 00:53 Clear 47 8.3 46 7.8 97 97 Calm 30.28 1025 8 13 0.00 0.00
1:05 am 01:05 Clear with Mist and Fog 46 7.8 44 6.7 93 93 Calm 30.31 1026 2 3 0.00 0.00
1:12 am 01:12 Clear with Mist and Fog 46 7.8 44 6.7 93 93 Calm 30.31 1026 3 5 0.00 0.00
1:53 am 01:53 Clear with Mist and Fog 45 7.2 44 6.7 97 97 Calm 30.28 1025 3 5 0.00 0.00
2:53 am 02:53 Clear 45 7.2 43 6.1 93 93 Calm 30.28 1025 9 14 0.00 0.00
3:53 am 03:53 Clear 47 8.3 43 6.1 86 86 Calm 30.29 1026 10 16 0.00 0.00
4:53 am 04:53 Clear 47 8.3 43 6.1 86 86 Calm 30.30 1026 10 16 0.00 0.00
5:53 am 05:53 Clear 45 7.2 42 5.6 90 90 Calm 30.33 1027 10 16 0.00 0.00
6:53 am 06:53 Clear 42 5.6 40 4.4 92 92 Calm 30.34 1027 10 16 0.00 0.00
7:53 am 07:53 Sunny 46 7.8 44 6.7 93 93 Calm 30.36 1028 10 16 0.00 0.00
8:53 am 08:53 Sunny 52 11.1 46 7.8 80 80 NE 3 6 30.37 1029 10 16 0.00 0.00
9:53 am 09:53 Sunny 57 13.9 46 7.8 67 67 VRB 3 6 30.38 1029 10 16 0.00 0.00
10:53 am 10:53 Sunny 63 17.2 45 7.2 52 52 ENE 9 15 30.37 1029 10 16 0.00 0.00
11:53 am 11:53 Sunny 67 19.4 43 6.1 42 42 E 7 11 30.35 1028 10 16 0.00 0.00
12:53 pm 12:53 Sunny 68 20 44 6.7 42 42 E 7 11 30.32 1027 10 16 0.00 0.00
1:53 pm 13:53 Sunny 71 21.7 44 6.7 38 38 ENE 6 9 30.29 1026 10 16 0.00 0.00
2:53 pm 14:53 Sunny 71 21.7 44 6.7 38 38 E 6 9 30.28 1025 10 16 0.00 0.00
3:53 pm 15:53 Sunny 71 21.7 44 6.7 38 38 E 6 9 30.27 1025 10 16 0.00 0.00
4:53 pm 16:53 Sunny 70 21.1 45 7.2 41 41 E 5 7 30.27 1025 10 16 0.00 0.00
5:53 pm 17:53 Clear 66 18.9 46 7.8 49 49 ESE 3 6 30.28 1025 10 16 0.00 0.00
6:53 pm 18:53 Clear 57 13.9 48 8.9 72 72 Calm 30.29 1026 10 16 0.00 0.00
7:53 pm 19:53 Clear 54 12.2 48 8.9 80 80 Calm 30.30 1026 10 16 0.00 0.00
8:53 pm 20:53 Clear 51 10.6 48 8.9 89 89 NW 3 6 30.31 1027 10 16 0.00 0.00
9:53 pm 21:53 Clear 50 10 48 8.9 93 93 Calm 30.31 1027 10 16 0.00 0.00
10:53 pm 22:53 Clear 50 10 46 7.8 86 86 E 3 6 30.29 1026 10 16 0.00 0.00
11:53 pm 23:53 Partly Cloudy 50 10 47 8.3 89 89 Calm 30.28 1025 10 16 0.00 0.00

Powered by AerisWeather